STARLINK-32545 (62135 NORAD) Tracking and Keplerian Element Data

This shows tracking and keplerian element data for the satellite.

Feedback or suggestion? Click here.




ElementValue
Catalog62135
NameSTARLINK-32545
Epoch Orbit1178
Epoch Day34.82415102
Epoch Year2025
RAAN229.9771
Inclination42.9978
Eccentricity0.0001467
Argument of Perigee271.1214
Mean Anonmoly88.9475
Mean Motion15.40679397
Decay Rate9.35E-06
L11 62135U 24222X 25034.82415102 .00000935 00000+0 29661-4 0 9990
L22 62135 42.9978 229.9771 0001467 271.1214 88.9475 15.40679397 11780



Live tracking and technical data element details for STARLINK-32545 (NORAD 62135). STARLINK-32545 can be tracked NOW for your location showing map with azimuth and elevation plus other details from your city location.







IsCatalogInMostPopularTable: catalog: 62135, numindb: 14
Update: records affected: 1



GetName: 62135 STARLINK-32545

Hit Count: updated at: Sat, 24 May 2025 16:36:00 GMT